Temp
25 25 25 25 25 25 25 25 25 25 25 24 24 24 24 24 24 24 24 24 23 23 23 24 24 24 24 24 24 24 24 24 24 24 24 24 24 24 25 25 25 25
25 25 25 25 25 25 25 25 25 25 25 25 25 24 24 24 24 24 24 24 24 23 23 24 24 24 24 24 24 24 24 24 24 24 24 24 24 24 25 25 25 25
25 25 25 25 25 25 25 25 25 25 25 25 25 25 25 25 24 24 24 24 24 24 24 24 24 24 24 24 24 24 24 24 24 24 24 24 24 24 24 25 25 25
25 25 25 25 25 25 25 25 25 25 25 25 25 25 25 25 24 24 24 24 24 24 24 24 24 24 24 24 24 24 24 24 24 24 24 24 24 24 24 24 25 25
25 25 25 25 25 25 25 25 25 25 25 25 25 25 25 25 25 24 24 24 24 24 24 24 24 24 24 24 24 24 24 24 24 24 24 24 24 24 24 24 24 25
25 25 25 25 25 25 25 25 25 25 25 25 25 25 25 25 25 24 24 24 24 24 24 24 24 24 24 24 24 24 24 24 24 24 24 24 24 24 24 24 24 25
25 25 25 25 25 25 25 25 25 25 25 25 25 25 25 25 25 25 25 24 24 24 24 24 24 24 24 24 24 24 24 24 24 24 24 24 24 24 24 24 24 24
25 25 25 25 25 25 25 25 25 25 25 25 25 25 25 25 25 25 25 25 25 25 25 25 24 24 24 24 24 24 24 24 24 24 24 24 24 24 25 24 24 24
24 24 25 25 25 25 25 25 25 25 25 25 25 25 25 25 25 25 25 25 25 25 25 25 24 24 24 24 24 24 24 24 24 24 24 24 24 25 25 25 25 25
24 24 24 24 24 25 25 25 25 25 25 25 25 25 25 25 25 25 25 25 25 25 25 25 25 25 24 25 25 25 25 25 25 24 25 25 25 25 25 25 25 25
24 24 24 24 24 24 25 25 25 25 25 25 25 25 25 25 26 25 25 25 25 25 25 25 25 25 25 25 25 25 25 25 25 25 25 25 25 25 25 25 25 25
24 24 24 24 24 24 24 25 25 25 25 25 25 25 25 25 26 26 26 26 26 26 25 25 25 25 25 25 25 25 25 25 25 25 25 25 25 25 25 25 25 25
24 24 24 24 24 24 24 24 24 25 25 25 25 25 25 26 26 26 26 26 26 26 26 26 26 25 25 25 25 25 25 25 25 25 25 25 25 25 25 25 25 25
24 24 24 24 24 24 24 24 24 24 25 25 25 25 25 26 26 26 26 26 26 26 26 26 26 26 25 25 25 25 25 25 25 25 25 25 25 25 25 25 25 25
24 24 24 24 24 24 24 24 24 24 25 25 25 25 26 26 26 26 26 26 26 26 26 26 26 26 26 26 26 26 25 26 25 25 26 26 26 26 26 25 25 25
23 23 24 24 24 24 24 24 24 24 25 25 25 25 26 26 26 26 26 26 26 26 26 26 26 26 26 26 26 26 26 26 26 26 26 26 26 26 26 26 26 26
22 23 23 24 24 24 24 24 24 24 25 25 25 25 26 26 26 26 26 26 26 26 26 26 26 27 27 26 26 26 26 26 26 26 26 26 26 26 26 26 26 26
21 21 22 22 23 23 24 24 24 24 24 25 25 25 25 26 26 26 26 27 26 26 26 26 26 27 27 27 27 26 26 26 26 26 26 26 26 26 26 26 26 26
20 20 20 21 22 22 23 23 24 24 24 24 25 25 25 25 25 26 26 26 26 26 26 26 27 27 27 27 26 26 26 26 26 26 26 26 26 26 26 26 26 26
20 20 20 20 21 21 22 22 22 23 23 23 24 24 24 24 25 25 25 25 25 25 25 26 26 26 26 26 26 26 26 26 26 26 26 26 26 26 26 26 26 26
19 19 19 19 20 20 20 21 21 21 21 22 22 22 22 23 23 23 24 24 24 24 24 25 25 25 25 25 25 26 26 25 25 25 25 26 26 26 26 26 26 26
19 19 19 19 19 19 19 19 19 20 20 20 20 20 21 21 21 22 23 24 24 24 24 24 24 24 25 25 25 25 25 25 25 25 25 26 26 26 26 26 26 26
18 18 19 19 19 19 19 19 19 19 19 19 20 20 20 20 20 21 22 23 23 23 24 24 24 23 24 24 24 24 25 25 25 25 25 25 25 25 25 25 25 26
18 18 18 18 18 19 19 19 19 19 19 19 20 20 20 20 20 21 21 21 21 22 22 23 23 23 23 23 23 23 24 24 24 24 24 24 24 24 25 25 25 25
19 19 18 18 18 18 19 18 18 19 19 19 20 20 20 20 20 21 21 21 20 20 21 21 22 22 22 22 22 22 23 23 23 23 23 23 23 23 23 24 24 24
19 19 19 18 19 19 19 19 19 19 19 19 19 19 19 20 20 20 21 20 20 20 20 21 21 21 21 21 21 21 21 21 21 22 22 22 22 21 21 22 22 22
Height
853 854 855 857 858 859 860 860 861 862 863 864 864 865 866 867 868 869 870 871 871 872 873 873 874 875 875 876 877 877 878 878 879 879 879 880 880 880 881 881 881 881
852 853 855 856 857 858 859 860 861 861 862 863 864 865 866 867 868 868 869 870 871 871 872 873 874 874 875 876 876 877 877 878 878 879 879 879 879 880 880 880 880 881
851 852 853 855 856 857 858 859 860 860 861 862 863 864 865 866 867 868 868 869 870 871 872 872 873 874 874 875 876 876 876 877 877 878 878 878 879 879 879 879 880 880
850 851 852 854 855 856 857 858 859 860 860 861 862 863 864 865 866 867 867 868 869 870 871 872 872 873 874 874 875 875 876 876 877 877 877 877 878 878 878 878 878 879
848 850 851 852 854 855 856 857 858 859 859 860 861 862 863 864 865 865 866 867 868 869 870 870 871 872 873 874 874 875 875 875 876 876 876 877 877 877 877 878 878 878
847 848 849 851 852 853 854 855 856 857 858 859 860 861 862 863 864 864 865 866 867 868 868 869 870 870 872 872 873 873 874 874 875 875 875 876 876 876 877 877 877 877
845 846 847 849 850 852 853 853 855 856 857 858 859 860 861 861 863 863 864 865 866 866 867 867 868 869 870 871 872 872 872 873 873 874 874 874 875 876 876 876 877 876
843 844 845 847 848 850 851 852 853 855 856 857 858 859 860 860 861 862 863 864 865 865 866 866 867 867 869 870 870 871 871 872 872 872 873 873 874 874 875 875 876 876
841 842 844 845 847 848 849 851 852 853 855 856 857 858 859 859 860 861 862 863 864 865 865 866 867 867 868 868 869 870 870 870 871 872 872 872 873 873 874 875 875 875
839 840 842 844 845 846 847 849 850 852 853 854 856 857 858 858 859 860 861 862 863 864 864 865 866 866 867 867 868 869 869 869 870 871 871 872 872 873 873 874 874 874
837 838 839 841 842 844 845 847 848 850 851 852 853 855 856 857 858 858 859 860 861 862 863 864 865 865 866 866 867 868 868 869 869 870 871 871 871 872 872 873 873 873
834 835 836 838 840 841 843 845 847 848 848 849 851 852 854 855 855 856 857 858 859 860 861 862 863 864 864 865 866 867 867 868 868 869 870 870 871 871 872 872 872 873
831 833 834 836 838 839 841 843 844 845 846 847 848 849 851 852 853 854 854 855 856 858 859 860 861 862 863 863 864 865 866 867 867 868 868 869 869 870 870 871 871 871
830 831 833 834 836 837 839 841 842 843 844 844 846 846 847 849 850 851 852 853 854 855 856 858 859 860 861 862 863 864 865 866 866 867 867 867 868 868 869 869 870 870
829 830 832 833 834 835 837 839 840 841 842 843 843 844 845 846 847 849 850 850 851 853 854 855 856 857 859 860 861 862 863 863 864 865 865 865 866 866 867 867 867 868
829 830 831 832 833 834 835 836 838 839 840 841 842 842 843 844 845 846 847 848 849 850 852 853 854 855 856 858 859 860 861 861 862 863 863 864 864 864 865 865 865 866
830 831 831 832 832 833 833 835 836 837 838 840 840 841 842 842 843 844 845 846 847 848 850 851 852 853 854 856 857 858 859 860 860 861 862 862 863 863 863 863 863 864
832 832 832 832 832 832 833 833 834 835 836 838 838 839 840 841 842 842 843 844 845 846 847 849 850 851 853 854 855 856 857 858 858 859 860 860 861 861 861 861 861 861
832 834 834 834 833 833 833 833 833 834 835 836 837 838 839 839 840 841 841 842 843 844 845 846 848 849 851 852 853 854 855 856 856 857 858 858 858 858 859 859 859 859
832 833 834 834 833 833 833 832 832 833 833 834 835 836 837 838 839 840 841 841 842 843 844 845 846 847 848 850 851 852 853 854 854 855 855 856 856 856 856 857 857 857
833 833 833 833 833 834 834 833 833 833 833 834 835 837 838 838 839 839 840 840 841 842 843 844 845 846 846 847 848 850 851 851 852 852 853 853 853 854 854 854 854 854
833 833 833 833 834 835 835 835 834 834 833 834 835 837 839 840 840 840 840 840 840 841 841 842 843 844 845 845 846 847 848 849 849 849 850 850 850 851 851 851 852 852
834 832 833 834 835 836 836 836 836 835 833 834 835 838 840 841 841 841 842 841 841 841 841 842 842 843 843 844 845 845 846 847 847 847 847 847 847 848 849 849 850 850
834 832 833 835 836 837 837 837 836 835 834 834 835 837 839 840 841 842 842 842 843 842 841 841 841 841 842 842 843 844 845 845 845 845 845 845 845 846 847 847 847 848
835 835 836 837 839 839 838 837 836 836 835 835 835 836 837 839 840 840 840 841 843 843 841 840 840 841 842 842 843 843 843 844 844 843 843 844 844 844 845 845 845 846
835 836 837 838 839 838 837 836 836 836 836 836 836 836 837 837 839 840 840 840 841 842 841 840 840 840 841 842 842 843 843 843 843 843 842 842 842 842 842 842 843 843
Wind_Speed
21 21 21 19 18 17 17 17 17 17 16 16 17 17 16 14 13 13 13 12 12 11 11 11 10 9 10 10 9 9 9 9 8 8 8 7 7 8 8 8 7 7
23 21 19 19 18 17 17 16 16 16 16 15 16 16 15 14 13 13 13 12 12 11 10 11 10 9 10 11 11 10 10 10 9 8 8 8 8 8 9 8 7 7
24 22 20 19 18 17 17 17 16 15 15 15 15 15 14 13 13 13 13 13 12 11 11 11 11 10 10 11 11 11 11 10 10 9 9 9 8 8 8 7 7 6
25 23 22 20 19 17 16 18 19 17 16 15 15 14 14 13 13 14 14 14 14 12 12 13 12 11 11 11 12 12 11 11 10 10 10 10 9 9 8 8 8 7
26 25 23 22 20 18 17 18 20 20 18 17 15 15 15 14 14 15 15 16 16 14 13 13 13 12 11 12 12 12 11 12 12 11 11 11 10 10 9 9 9 9
28 26 25 24 22 19 18 18 19 20 19 17 16 15 15 15 15 15 16 17 17 16 15 14 14 13 12 13 13 13 12 12 13 13 12 12 11 11 10 10 10 10
28 27 26 26 24 21 19 18 19 20 20 18 16 16 16 16 16 16 16 17 18 18 17 16 15 14 13 13 13 13 14 13 13 13 13 12 11 12 12 11 10 10
27 27 26 26 26 24 20 19 19 19 19 19 18 17 16 16 16 16 16 16 18 19 18 18 17 15 14 13 13 13 14 13 13 13 13 12 12 12 12 11 11 11
26 25 25 24 25 25 23 21 19 19 18 19 19 18 17 17 17 17 17 17 17 18 19 19 18 15 14 14 14 13 12 13 13 12 13 13 13 13 12 11 11 11
25 24 24 24 24 25 25 23 22 20 19 18 18 18 18 18 17 18 18 18 18 19 19 19 18 16 15 15 14 14 13 13 13 13 13 14 14 14 12 10 11 11
25 24 24 24 25 25 24 24 22 21 21 20 19 19 20 20 19 19 19 20 20 20 19 19 18 17 17 16 16 15 15 14 14 14 14 14 15 15 14 13 12 13
25 26 26 25 25 25 24 23 22 21 20 21 21 20 20 21 21 21 20 20 20 20 20 20 19 18 18 18 18 17 17 17 16 16 15 15 15 15 15 15 15 15
27 26 26 26 25 25 24 23 22 21 20 20 20 21 21 22 22 22 21 20 20 20 20 20 20 20 19 19 18 19 19 19 19 19 19 18 17 17 16 16 17 17
27 25 24 24 24 24 24 23 22 21 20 19 19 19 20 22 23 23 23 22 21 21 22 21 21 21 21 20 20 20 20 21 21 22 22 21 20 19 18 18 18 18
26 24 22 22 22 23 23 22 21 20 19 17 16 16 17 19 21 22 24 24 24 23 23 23 23 24 24 23 22 22 22 23 23 23 23 23 22 21 20 19 19 19
24 22 20 20 21 23 23 23 22 21 19 18 16 15 15 15 17 20 23 25 26 26 25 25 26 27 27 26 25 24 24 24 24 24 24 24 24 23 22 21 20 21
18 18 18 19 21 21 22 23 24 22 21 19 18 16 15 15 15 18 20 23 26 27 27 27 28 29 28 28 27 27 26 26 26 25 25 25 25 25 24 24 22 22
12 13 15 17 18 18 19 21 23 23 22 20 18 17 16 16 15 16 18 21 24 26 27 27 28 28 29 29 30 29 28 28 27 27 26 25 26 26 26 26 26 25
8 9 10 13 14 14 16 17 19 20 21 20 19 17 16 16 15 15 16 18 21 23 25 26 27 27 27 28 30 30 29 28 28 28 28 28 27 27 27 27 28 28
7 6 5 6 7 8 9 11 12 13 14 14 14 14 13 13 12 12 11 12 13 14 17 20 22 23 24 25 27 29 29 28 28 28 28 29 29 29 29 29 29 29
7 7 7 7 6 5 5 5 6 6 6 6 6 6 6 7 7 7 8 9 9 9 9 11 13 15 17 18 20 22 23 25 26 27 28 29 29 30 30 30 30 29
9 8 7 7 5 4 4 5 5 6 7 7 6 5 3 2 2 5 8 10 11 10 9 8 8 9 10 12 13 14 16 18 20 23 25 27 28 29 30 30 31 31
14 14 12 10 8 5 5 5 6 6 8 9 9 8 7 5 2 1 5 8 9 7 4 4 4 5 6 6 8 9 10 12 13 15 18 20 23 24 25 26 26 27
15 16 15 13 11 9 8 8 8 7 6 5 6 6 5 4 2 3 5 7 6 5 3 2 3 4 5 6 5 6 8 9 11 13 14 16 18 19 19 20 21 22
14 15 15 13 11 10 10 10 10 8 7 6 5 5 5 3 1 5 7 7 4 4 4 4 5 6 5 5 5 6 8 10 11 13 15 16 17 18 18 19 20 20
13 12 13 13 13 12 13 12 11 9 7 7 6 4 4 3 2 6 9 6 2 1 1 2 4 6 4 5 6 7 9 10 11 13 15 16 16 16 17 18 18 18
Wind_Direction
217 216 215 214 214 217 219 220 220 219 219 220 217 214 214 214 213 214 218 218 219 223 223 222 225 232 232 230 236 245 247 251 259 260 256 261 270 267 267 275 279 286
215 215 216 216 216 219 223 225 226 225 224 224 222 219 219 219 219 219 220 221 223 226 226 222 223 228 231 231 235 241 245 250 254 256 260 268 272 269 272 280 281 281
215 215 217 219 220 223 228 230 231 229 229 227 225 224 225 226 227 225 223 223 223 225 227 227 229 231 232 231 234 239 245 251 255 258 263 268 274 276 279 285 283 279
216 217 218 221 224 229 235 235 233 231 230 230 229 228 229 232 233 230 226 224 222 223 228 233 235 237 236 233 232 237 245 252 254 256 262 268 275 280 285 289 284 278
219 219 220 222 225 231 237 238 234 231 231 231 231 231 233 234 235 232 228 225 223 224 228 232 234 236 236 233 233 236 241 246 248 252 261 265 268 275 284 290 286 278
222 222 223 223 225 229 234 235 233 231 231 232 232 233 234 235 236 235 232 229 228 228 228 228 229 230 231 232 234 236 237 240 242 247 256 260 260 266 275 285 287 280
222 223 224 224 225 228 231 232 231 231 232 234 235 235 235 236 237 236 236 235 233 232 231 227 225 227 228 230 232 234 235 236 237 241 248 253 255 257 264 274 281 279
221 223 223 223 224 227 230 231 230 230 232 234 237 239 239 239 239 238 239 240 238 236 233 228 227 227 227 229 232 234 235 235 234 237 242 245 247 251 257 266 272 273
220 222 223 223 225 228 231 231 231 231 232 235 239 243 244 244 244 243 242 243 243 239 235 233 233 232 230 233 237 240 241 238 235 237 241 243 245 247 253 260 265 268
218 221 222 224 226 229 231 232 234 235 236 239 242 246 248 248 251 250 247 245 244 242 240 239 240 240 239 240 242 245 248 247 243 242 245 247 247 249 251 253 259 263
216 219 221 222 225 229 232 233 234 237 240 242 244 247 251 253 255 254 251 248 247 246 245 245 247 248 248 247 248 249 251 254 252 249 250 252 253 254 254 254 257 263
214 218 220 221 223 227 231 232 234 236 239 241 242 245 250 254 255 255 254 253 252 250 249 250 252 252 253 254 254 253 255 257 257 255 255 256 257 259 260 259 260 265
215 218 219 220 222 225 228 230 232 234 238 238 240 244 249 251 252 253 254 254 253 251 251 253 253 252 254 258 257 256 257 258 260 260 260 260 260 262 264 264 264 267
216 217 217 219 221 223 225 227 227 230 234 236 239 244 248 248 249 251 252 252 252 251 251 252 252 250 252 255 257 256 256 258 260 261 262 262 263 265 266 267 267 269
217 216 217 219 221 221 223 223 222 222 225 227 232 238 243 246 247 249 251 252 252 251 251 251 251 250 251 253 255 254 254 255 257 258 259 260 262 264 266 267 268 269
217 216 218 219 220 220 220 220 219 219 220 223 227 231 236 242 246 248 251 253 253 252 250 250 250 252 254 255 255 255 254 254 256 257 257 257 259 262 265 267 268 269
218 217 217 217 218 219 219 219 219 220 222 225 230 235 239 242 246 249 252 254 254 253 251 250 251 254 256 257 258 257 256 256 258 259 259 258 259 260 263 267 269 271
227 228 222 218 219 221 222 221 221 221 223 227 232 238 243 246 249 252 253 254 253 252 252 252 253 256 257 258 260 259 258 257 259 261 260 260 261 261 264 267 269 272
204 224 227 221 218 219 221 220 219 220 223 226 231 238 244 247 250 254 255 254 251 250 251 253 255 259 259 259 259 260 259 257 258 260 261 262 263 265 266 268 270 273
136 151 165 180 186 192 201 204 205 209 212 216 222 227 231 234 237 242 246 245 243 245 249 252 254 257 259 258 259 260 261 260 259 260 261 263 264 266 268 270 272 274
116 119 103 95 103 115 128 147 161 166 171 184 195 203 215 220 219 220 219 219 221 223 228 238 245 248 250 253 255 258 260 261 261 262 262 263 264 266 268 270 272 275
82 86 78 73 83 89 85 93 104 105 103 98 91 80 66 81 141 194 209 211 212 211 210 216 230 238 240 242 244 247 251 254 257 260 262 263 265 266 268 269 272 274
66 67 63 57 58 60 62 64 68 81 87 82 76 66 49 45 56 250 240 225 212 203 201 203 216 232 238 240 242 245 250 253 257 260 263 265 268 270 271 272 273 274
65 65 62 54 43 36 36 39 43 59 77 88 101 98 71 43 355 296 285 263 240 233 245 222 204 216 223 230 241 250 257 263 267 269 271 272 275 278 280 281 281 281
63 64 63 60 51 39 37 37 37 45 51 61 97 130 123 86 314 264 268 275 265 251 257 242 229 234 241 251 265 269 268 269 270 272 272 274 278 282 284 284 284 285
56 56 53 52 49 45 45 44 43 47 50 47 53 78 92 65 334 265 253 258 260 253 311 302 260 262 288 311 315 315 308 298 289 284 283 283 285 287 288 289 290 290